Location: Andrest
(43.3200°N, 0.0641°E)
Time: 04:00:16
(UTC+00:00)

COSMO-SKYMED 1 - Pass Details

Date: 20 April 2021
Orbit: 621 x 623 km, 97.9° (Epoch: 18 May)

Event Time Altitude Azimuth Distance (km) Brightness Sun altitude
Rises 04:22:53 0° 139° (SE) 2,893 6.2 -8.7°
Reaches altitude 10° 04:25:16 10° 128° (SE) 1,991 5.5 -8.3°
Maximum altitude 04:29:01 29° 68° (ENE) 1,145 5.0 -7.7°
Drops below altitude 10° 04:32:47 10° 8° (N) 2,004 5.6 -7.1°
Sets 04:35:11 0° 358° (N) 2,915 6.3 -6.7°
